Погода в Александровке 3-ей

Россия / Саратовская область     51°40′53″N   44°09′02″E
темп.,
°C
ветер,
м/с
пор.,
м/с
влажн.,
%
обл.,
%
осадки,
мм/ч
давл.,
гПа
погр.,
м
13 апреля, вт
вт1301:00+10вюв4136334 0.0 1030218
04:00+8вюв4126663 0.0 1030199
07:00+8вюв412665 0.0 1030185
10:00+14вюв711455 0.0 1030449
13:00+18юв793221 0.0 1029955
16:00+18юв7930100 0.0 10281227
19:00+16вюв4944100 0.0 1027196
22:00+11вюв4957100 0.0 1027136
14 апреля, ср
ср1401:00+9вюв4126495 0.0 1027186
04:00+7в410685 0.0 1026146
07:00+7в410705 0.0 1025166
10:00+13вюв69475 0.0 1024423
13:00+17вюв78340 0.0 1023976
16:00+18вюв68300 0.0 10211475
19:00+16вюв47451 0.0 1020161
22:00+12в47605 0.0 1020107
15 апреля, чт
чт1501:00+10вюв496922 0.0 1019139
04:00+9вюв4976100 0.0 1019120
07:00+8в41080100 0.0 1018160
10:00+14вюв695964 0.0 1017430
13:00+18вюв564390 0.0 1016840
16:00+20юв563822 0.0 10151491
19:00+17в334999 0.0 101532
22:00+14в3359100 0.0 101533
16 апреля, пт
пт1601:00+12вюв2261100 0.0 101416
04:00+11вюв336185 0.0 101419
07:00+10в336599 0.0 101435
10:00+15вюв4554100 0.0 1015307
13:00+17в3446100 0.0 1015878
16:00+19всв333978 0.0 10151768
19:00+17в36477 0.0 1015109
22:00+13в335544 0.0 101630
17 апреля, сб
сб1701:00+11всв226175 0.0 101615
04:00+10всв357138 0.0 101758
07:00+9всв611935 0.0 1018301
10:00+12всв787140 0.0 1018669
13:00+15всв775987 0.0 10191310
16:00+14в785431 0.0 10201276
19:00+12в7114916 0.0 10211143
22:00+8всв713543 0.0 1023607